Andover, NJ

4:50 PM EDT on August 29, 2016 (GMT -0400)
Andover

Weather History for K12N - October, 2013

Change the Weather History Date:

Wednesday, October 2, 2013

  Actual Average (KFWN) Record (KFWN)
Temperature  
Mean Temperature 65 °F -  
Max Temperature 84 °F 65 °F 84 °F (1954)
Min Temperature 48 °F 42 °F 30 °F (1992)
Growing Degree Days 15 (Base 50)    
Moisture  
Dew Point 56 °F    
Average Humidity 77    
Maximum Humidity 97    
Minimum Humidity 41    
Precipitation  
Precipitation 0.00 in - - ()
Sea Level Pressure  
Sea Level Pressure 29.99 in    
Wind  
Wind Speed 1 mph (West)    
Max Wind Speed 8 mph    
Max Gust Speed -    
Averages and records for this station are not official NWS values.
T = Trace of Precipitation, MM = Missing Value Source: NWS Daily Summary

Daily Weather History Graph

Daily Weather History Graph

Search for Another Location

Airport or City:

Trip Planner

Search our weather history database for the weather conditions in past years. The results will help you decide how hot, cold, wet, or windy it might be!

Date:

Astronomy

Oct. 02, 2013 Rise Set
Actual Time 6:56 AM EDT 6:38 PM EDT
Civil Twilight 6:29 AM EDT 7:06 PM EDT
Nautical Twilight 5:57 AM EDT 7:38 PM EDT
Astronomical Twilight 5:25 AM EDT 8:10 PM EDT
Moon 4:26 AM EDT (10/2) 5:14 PM EDT (10/2)
Length of Visible Light 12h 36m
Length of Day
11h 42m
Waning Crescent, 6% of the Moon is Illuminated
Oct 2
Waning Crescent
Oct 4
New
Oct 11
First Quarter
Oct 18
Full
Oct 26
Last Quarter

Hourly Weather History & Observations

Time (EDT) Temp. Heat Index Dew Point Humidity Pressure Visibility Wind Dir Wind Speed Gust Speed Precip Events Conditions
12:54 AM 54.0 °F - 52.0 °F 93% 29.97 in - Calm Calm - N/A   Unknown
1:54 AM 53.1 °F - 51.1 °F 93% 29.98 in - Calm Calm - N/A   Unknown
2:54 AM 51.1 °F - 50.0 °F 96% 29.98 in - Calm Calm - N/A   Unknown
3:54 AM 51.1 °F - 48.9 °F 92% 29.98 in - Calm Calm - N/A   Unknown
4:54 AM 50.0 °F - 48.9 °F 96% 29.98 in - Calm Calm - N/A   Unknown
5:54 AM 50.0 °F - 48.9 °F 96% 29.99 in - Calm Calm - N/A   Unknown
6:54 AM 48.9 °F - 48.0 °F 97% 30.01 in - Calm Calm - N/A   Unknown
7:54 AM 50.0 °F - 48.9 °F 96% 30.01 in - Calm Calm - N/A   Unknown
8:54 AM 59.0 °F - 55.9 °F 90% 30.02 in - Calm Calm - N/A   Unknown
9:54 AM 66.9 °F - 57.0 °F 70% 30.02 in - Variable 4.6 mph - N/A   Unknown
10:54 AM 72.0 °F - 59.0 °F 64% 30.01 in - Variable 4.6 mph - N/A   Unknown
11:54 AM 77.0 °F - 59.0 °F 54% 29.98 in - Variable 5.8 mph - N/A   Unknown
12:54 PM 79.0 °F - 59.0 °F 50% 29.97 in - SW 8.1 mph - N/A   Unknown
1:54 PM 82.0 °F 82.0 °F 57.9 °F 44% 29.95 in - Variable 5.8 mph - N/A   Unknown
2:54 PM 82.9 °F 82.4 °F 57.0 °F 41% 29.94 in - Variable 6.9 mph - N/A   Unknown
3:54 PM 80.1 °F 80.6 °F 57.9 °F 47% 29.94 in - Variable 5.8 mph - N/A   Unknown
4:54 PM 82.0 °F 82.0 °F 57.9 °F 44% 29.94 in - NNW 5.8 mph - N/A   Unknown
5:54 PM 79.0 °F - 60.1 °F 52% 29.94 in - Calm Calm - N/A   Unknown
6:54 PM 70.0 °F - 62.1 °F 76% 29.97 in - Calm Calm - N/A   Unknown
7:54 PM 64.9 °F - 61.0 °F 87% 29.99 in - Calm Calm - N/A   Unknown
8:54 PM 63.0 °F - 60.1 °F 90% 30.01 in - Calm Calm - N/A   Unknown
9:54 PM 61.0 °F - 59.0 °F 93% 30.02 in - Calm Calm - N/A   Unknown
10:54 PM 60.1 °F - 57.9 °F 93% 30.03 in - Calm Calm - N/A   Unknown
11:54 PM 59.0 °F - 57.0 °F 93% 30.04 in - Calm Calm - N/A   Unknown